Regional Weather Roundup
Issued by NWS Albany, NY

Home | Current Version | Previous Version | Graphics & Text | Print | Product List | Glossary Off
Versions: 1 2 3 4 5 6 7 8 9 10 11 12 13 14 15 16 17 18 19 20 21 22 23 24 25 26 27 28 29 30 31 32 33 34 35 36 37 38 39 40 41 42 43 44 45 46 47 48 49 50

000
ASUS41 KALY 222210
RWRALY

NEW YORK STATE HOURLY WEATHER ROUNDUP
NATIONAL WEATHER SERVICE ALBANY NY
600 PM EDT FRI MAY 22 2015

NOTE: "FAIR" INDICATES FEW OR NO CLOUDS BELOW 12,000 FEET WITH NO
SIGNIFICANT WEATHER AND/OR NO OBSTRUCTIONS TO VISIBILITY.

NYZ032-033-038>043-046>054-057>066-NYZ062>081-222300-
EAST


CITY           SKY/WX    TMP DP  RH WIND       PRES   REMARKS
ALBANY         MOSUNNY   62  27  26 NW17G29   30.00R
GLENS FALLS    CLOUDY    62  29  28 NW15G23   29.96R
POUGHKEEPSIE   SUNNY     69  29  22 NW13G24   29.95R
MONTGOMERY     SUNNY     69  35  28 NW14G21   29.96R
WHITE PLAINS   MOSUNNY   67  37  33 NW10G21   29.94R
ISLIP          PTSUNNY   70  39  32 NW15      29.92R
NEW YORK CITY  MOSUNNY   70  40  33 NW13G29   29.94S
CENTRAL PARK   PTSUNNY   70  38  31 W8G18     29.98R
$$

NYZ005>009-017-018-044>046-055-056-222300-
CENTRAL


CITY           SKY/WX    TMP DP  RH WIND       PRES   REMARKS
FULTON         SUNNY     56  26  31 W14G26    30.09R
SYRACUSE       MOSUNNY   57  31  37 NW20G30   30.08R
ROME           MOSUNNY   57  29  34 W17G30    30.06R
ELMIRA         MOSUNNY   61  35  37 NW10G22   30.06R
BINGHAMTON     MOSUNNY   57  34  41 N13G24    30.05R
MONTICELLO     SUNNY     61  30  31 NW14G22   30.01R
$$

NYZ026>034-041>043-222300-
NORTH


CITY           SKY/WX    TMP DP  RH WIND       PRES   REMARKS
WATERTOWN      CLOUDY    53  35  50 W13G24    30.05R
FORT DRUM      NOT AVBL
MASSENA        PTSUNNY   49  22  34 NW14      30.07R
SARANAC LAKE   CLOUDY    45  26  47 VRB7      30.00R
PLATTSBURGH    CLOUDY    53  26  35 NW20G26   30.00R
$$

NYZ001>004-010>016-019>021-222300-
WEST


CITY           SKY/WX    TMP DP  RH WIND       PRES   REMARKS
NIAGARA FALLS  MOSUNNY   55  26  32 N12       30.16R
BUFFALO        MOSUNNY   57  26  30 NW16G22   30.16R
DUNKIRK        SUNNY     55  34  45 W16G22    30.18R
JAMESTOWN      MOSUNNY   52  25  35 W21G30    30.20R
WELLSVILLE     MOSUNNY   55  30  38 NW21G31   30.13R
ROCHESTER      PTSUNNY   55  23  28 NW20G25   30.13R
PENN YAN       PTSUNNY   57  32  38 N8G23     30.10R
$$

             KEY
       WCI = WIND CHILL INDEX
       VSB = VISIBILITY
       HX  = HEAT INDEX
$$



USA.gov is the U.S. government's official web portal to all federal, state and local government web resources and services.